Location: Croagnes
(43.9363°N, 5.3265°E)
Time: 21:48:23
(UTC+00:00)

Meteor 1-16 Rocket - Pass Details

Date: 02 October 2020
Orbit: 790 x 908 km, 81.2° (Epoch: 22 October)

Event Time Altitude Azimuth Distance (km) Brightness Sun altitude
Exits shadow 19:14:35 33° 63° (ENE) 1,457 5.0 -21.8°
Drops below altitude 10° 19:18:37 10° 26° (NNE) 2,562 6.6 -22.5°
Sets 19:21:12 0° 18° (NNE) 3,491 7.4 -22.9°
